Theta_e
335 335 332 328 326 326 329 332 333 333 334 334 333 332 332 331 331 334 336 336 335 335 334 334 335 336 335 335 335 334 333 332 325 314 315 318 320 325 327 327 328 326 325 324 324 324 325 326 329 330 330 329 329 329 327 326 325 324 325 326 326 326 327 327 327 327 327 327 328 328 325 324 324 324 325 325 326 325 325 325 325 324 323 323 323
334 335 334 331 329 328 328 331 333 333 333 334 333 332 331 331 332 335 336 336 336 336 335 335 335 336 335 335 335 334 333 332 322 313 315 319 321 325 326 326 327 326 326 325 325 325 325 326 328 329 330 329 330 329 327 325 325 324 324 325 326 326 326 326 327 327 327 327 328 328 325 324 323 323 324 325 326 326 325 325 325 324 323 323 322
333 334 334 333 331 331 330 330 333 333 333 334 334 332 331 333 334 335 335 337 336 335 336 335 335 335 335 335 335 334 333 330 320 312 315 319 320 323 325 326 326 327 326 326 327 327 327 327 327 329 329 329 330 329 327 327 325 324 324 325 325 325 326 326 326 327 327 327 328 328 326 324 323 323 323 325 326 326 325 325 324 324 323 322 321
333 334 335 334 332 331 332 333 334 334 333 333 334 333 333 335 336 335 335 336 336 336 335 335 335 335 335 335 335 334 332 327 320 313 315 320 321 322 324 325 326 327 326 327 328 328 329 328 328 328 329 329 329 327 327 327 326 325 324 324 324 325 326 326 326 327 327 327 327 328 327 324 324 324 323 324 326 326 326 325 323 323 322 321 321
333 333 335 335 333 331 332 333 334 334 333 333 334 333 334 336 336 336 335 334 335 336 335 335 335 334 335 335 334 335 332 326 322 316 316 319 321 322 323 324 325 326 326 326 327 328 328 328 328 328 329 329 329 326 326 327 326 325 325 324 324 324 326 326 326 326 327 327 327 328 327 325 324 323 323 323 325 326 326 325 324 323 322 321 320
332 332 334 336 335 333 333 333 334 335 334 333 333 333 334 336 336 336 335 333 334 336 335 334 334 334 334 335 335 335 333 328 325 322 319 319 320 322 322 323 324 324 325 326 326 327 328 328 327 328 328 328 329 327 326 326 325 325 325 324 323 323 324 325 326 326 327 327 327 328 327 326 323 322 322 322 324 325 326 326 325 324 322 321 319
334 333 333 334 335 334 334 334 334 335 335 334 334 333 334 336 335 335 334 333 334 335 335 335 334 334 334 335 335 334 334 330 327 326 324 321 321 320 321 321 322 323 324 325 325 326 326 327 327 328 328 328 329 329 327 325 323 324 325 324 322 322 321 322 323 325 326 327 327 327 327 325 323 322 322 322 323 325 326 326 325 324 322 320 317
335 334 333 333 334 334 334 334 334 335 335 334 334 333 333 335 335 334 333 333 333 335 335 335 334 334 334 335 334 334 333 332 329 328 326 325 324 322 321 320 320 320 321 322 323 324 325 326 326 327 328 329 329 329 328 325 323 323 325 324 323 322 321 320 321 321 322 324 325 325 325 324 323 323 322 322 323 325 326 327 326 324 322 319 317
335 335 334 333 333 333 333 333 334 334 334 333 333 333 333 334 335 333 332 332 333 335 335 334 334 334 334 335 335 334 334 333 331 330 328 327 327 326 325 324 322 321 320 320 321 322 324 325 325 325 327 328 328 329 329 328 325 324 325 325 324 323 321 321 321 321 320 320 321 323 324 324 324 324 323 323 323 325 326 326 326 324 322 320 319
333 335 335 334 333 333 332 332 332 332 331 331 333 334 334 334 335 333 332 332 333 335 335 334 334 334 333 334 335 334 334 334 333 332 331 330 329 329 328 327 326 325 324 323 321 321 321 322 323 325 326 327 327 328 329 329 328 326 325 324 324 322 321 321 321 322 320 319 319 320 323 325 325 325 325 323 323 325 326 326 326 324 322 321 321
332 334 335 335 334 333 333 332 331 329 328 331 333 334 334 334 335 333 331 332 333 335 334 334 334 333 333 334 334 334 334 334 333 332 332 332 332 331 330 328 327 327 327 327 325 324 323 321 321 322 323 325 326 327 328 329 328 327 326 325 324 323 322 322 322 322 321 319 318 319 321 324 325 326 326 324 323 324 326 326 325 324 323 322 323
332 333 334 334 335 335 334 332 331 329 328 330 334 334 333 334 334 333 331 332 334 335 334 333 334 333 333 334 333 333 334 334 334 334 333 333 333 333 332 331 330 330 330 329 328 328 328 326 324 322 321 321 322 323 326 327 327 327 326 326 325 324 323 323 323 323 322 319 318 319 321 324 326 327 327 325 324 325 325 325 325 324 324 323 324
332 332 333 333 334 335 335 334 332 330 328 329 333 333 332 334 334 333 332 332 333 334 333 334 335 333 333 334 333 333 334 334 334 334 334 333 333 334 334 332 332 332 332 332 331 330 330 330 328 326 324 322 321 320 321 322 323 324 325 325 325 325 324 324 324 323 322 320 317 319 321 323 326 327 327 326 324 325 325 325 325 325 325 324 325
331 332 332 333 333 334 334 334 332 330 328 329 332 332 331 333 334 332 332 333 333 333 333 334 334 333 333 333 333 333 333 334 335 334 335 334 333 334 334 333 332 333 334 333 333 332 330 330 329 327 326 326 325 323 320 318 319 320 321 324 324 323 324 324 324 323 322 321 317 318 320 321 325 327 327 327 326 325 325 325 325 325 325 325 325
329 330 331 332 333 333 333 334 333 331 330 329 331 332 331 332 333 332 332 332 333 333 333 334 333 332 333 332 331 332 332 334 334 334 335 334 334 333 333 333 333 333 334 334 333 332 331 332 331 328 327 328 327 326 323 320 319 318 318 322 323 322 323 324 324 323 322 321 318 317 319 321 324 327 328 327 326 326 325 325 325 325 325 325 324
328 328 329 330 331 332 333 334 334 332 332 331 331 331 330 331 332 333 332 332 333 333 333 334 333 331 331 332 332 333 334 334 334 334 335 335 334 333 331 334 335 334 335 334 333 333 333 333 332 331 330 330 329 328 326 321 319 318 316 319 321 320 321 322 322 322 322 321 319 316 318 322 324 326 328 327 327 326 326 325 325 324 324 324 323
327 328 328 328 330 331 332 333 334 333 332 331 332 332 329 328 330 332 332 332 332 332 332 334 334 331 329 330 334 335 334 334 334 334 335 335 334 333 332 334 336 334 335 334 334 334 334 333 333 333 332 331 330 330 330 325 319 317 316 316 317 317 319 320 319 319 319 318 319 317 317 321 324 325 327 328 327 326 327 327 325 324 323 323 321
326 327 327 327 328 330 331 333 334 333 332 331 331 332 329 327 328 330 331 331 332 331 330 331 332 332 329 328 331 335 334 334 335 335 335 335 334 334 334 335 336 335 334 335 335 334 334 333 332 332 332 331 330 331 332 330 322 315 313 313 313 314 316 319 319 319 318 316 317 317 316 319 323 324 326 327 327 327 327 327 326 325 323 323 321
326 326 327 328 328 329 331 332 334 333 332 331 331 331 330 328 327 328 329 330 331 331 329 329 330 330 329 327 331 336 335 333 334 334 335 335 335 335 335 335 335 334 334 334 334 334 334 333 331 330 331 330 330 331 333 333 327 317 313 315 315 316 316 318 319 321 320 317 316 316 316 318 321 323 324 326 327 327 327 327 327 326 325 324 321
326 327 329 329 329 330 331 331 333 333 332 332 331 331 330 328 326 327 329 329 330 330 330 331 330 328 328 329 333 337 335 333 333 333 332 332 333 334 335 335 334 333 333 333 333 334 334 333 332 330 330 330 330 331 332 333 330 322 318 320 322 322 322 321 321 321 321 319 317 316 315 315 319 322 323 324 326 327 327 327 327 326 325 324 322
328 329 331 331 331 332 332 331 332 333 332 332 331 331 330 328 326 327 329 329 330 330 330 331 330 327 328 330 333 335 334 334 334 333 331 330 330 331 332 333 333 331 331 332 332 333 333 333 332 330 330 330 329 330 331 330 330 325 322 323 324 324 324 324 323 321 321 321 320 317 315 314 314 319 323 323 324 326 326 325 326 325 325 324 323
327 329 330 330 330 331 332 332 333 333 333 332 330 330 330 328 325 325 328 330 330 331 330 330 329 328 330 332 332 331 331 333 333 333 333 331 329 329 330 330 330 329 328 330 332 332 332 332 331 330 329 329 328 328 328 328 328 326 323 323 324 323 324 325 324 322 320 320 319 318 317 316 313 314 320 324 324 324 324 324 325 324 325 325 323
326 329 330 329 329 330 331 331 332 333 333 332 331 329 328 327 325 325 329 331 331 332 330 329 329 331 334 334 332 329 328 331 332 332 332 331 329 328 328 328 327 328 329 330 331 331 332 331 330 329 329 329 328 328 327 328 328 327 323 321 321 322 323 324 325 323 320 317 317 317 317 318 316 313 315 321 325 325 324 324 324 324 324 324 323
324 327 329 329 328 328 329 330 331 332 332 332 331 329 328 327 326 326 329 331 330 331 331 329 329 332 334 333 331 330 329 330 332 331 330 330 330 329 327 327 327 328 329 329 330 330 330 331 329 328 328 328 329 329 329 328 327 327 325 323 323 323 321 321 322 323 322 319 317 318 317 317 318 316 314 316 322 325 325 325 324 324 324 323 322
323 325 327 328 328 329 329 329 330 331 331 330 329 329 328 328 329 329 329 329 328 329 330 330 329 330 330 328 327 328 329 330 332 331 329 330 331 331 329 328 327 328 329 329 328 330 330 329 329 328 328 328 329 330 330 329 327 327 328 327 326 326 323 322 321 321 322 322 321 321 320 318 316 315 314 313 316 321 324 325 324 323 323 323 322
321 322 324 326 328 328 329 329 329 330 329 328 328 329 329 329 330 331 330 328 328 329 329 330 330 329 328 327 326 326 328 330 331 330 328 329 330 330 330 330 329 329 330 330 330 331 331 329 328 328 328 327 328 329 330 330 329 329 329 328 326 326 325 324 325 325 324 324 324 324 323 321 318 315 313 312 311 313 318 322 324 324 324 324 323
320 321 322 325 327 328 329 329 329 328 328 328 327 328 329 329 328 329 330 330 330 330 330 330 331 329 328 328 328 328 328 329 330 329 328 329 329 329 330 331 331 330 330 330 331 331 330 330 329 328 327 327 327 327 328 329 330 329 329 327 325 325 325 325 326 327 328 327 328 327 326 325 323 320 317 315 311 309 310 314 319 322 324 325 324
319 320 321 323 325 327 328 328 328 327 328 328 327 327 330 329 328 329 330 331 331 330 330 330 330 330 329 329 328 329 329 328 330 329 328 329 329 330 331 332 332 331 331 331 331 331 331 330 329 328 327 328 328 328 329 329 330 330 328 325 324 323 323 323 323 324 326 328 328 329 329 328 327 325 322 320 318 314 311 309 311 315 321 324 325
318 319 320 321 323 326 326 327 327 327 327 328 327 328 329 328 328 329 330 331 330 329 330 329 329 328 328 328 328 328 326 327 329 330 329 329 329 329 330 332 333 332 331 331 331 332 332 330 329 329 329 330 330 330 330 330 330 331 329 326 325 324 322 320 319 320 322 324 326 327 328 329 330 329 327 324 321 320 317 313 309 308 313 320 324
317 318 319 320 321 324 325 326 326 327 328 328 328 328 328 327 328 329 329 330 330 329 328 327 327 327 327 327 326 326 325 326 328 330 331 332 330 328 329 332 333 332 331 331 332 332 332 331 331 332 332 332 333 333 332 331 331 331 330 329 330 329 328 324 320 319 321 323 326 327 328 329 330 330 330 328 326 323 320 318 315 310 308 312 317
316 317 318 319 320 321 324 325 326 327 327 328 329 328 326 326 328 329 329 328 328 327 326 326 327 326 325 326 326 326 326 328 329 331 333 333 332 330 330 330 330 332 332 332 332 332 332 332 333 334 333 333 333 334 333 332 332 332 332 332 333 333 333 331 327 321 320 322 325 327 328 329 330 330 330 330 329 327 325 322 319 316 311 309 310
315 316 317 318 319 319 321 323 324 325 326 327 328 327 325 325 325 327 328 327 326 326 325 325 325 324 323 324 326 327 328 330 330 331 332 331 329 328 327 327 328 331 332 331 330 331 332 332 332 333 333 333 333 332 332 332 332 332 332 332 333 334 334 334 331 325 322 321 322 323 324 325 327 328 329 330 330 329 329 327 325 323 319 314 311
315 316 316 317 318 318 319 320 322 323 325 326 326 326 326 325 324 325 326 324 322 323 325 325 324 323 322 323 324 325 326 327 327 327 327 326 326 327 326 326 328 331 331 331 330 331 331 331 331 332 332 332 332 332 331 331 332 331 332 332 333 333 334 334 332 330 328 327 327 326 326 326 325 324 324 326 327 328 329 330 329 328 326 322 318
316 316 316 317 317 318 318 318 320 321 323 324 325 325 325 325 325 325 326 326 324 322 323 324 325 323 322 323 323 323 323 322 322 322 322 323 325 327 329 328 329 330 330 330 331 331 331 330 330 330 331 330 330 331 331 330 331 330 331 331 332 333 333 333 333 332 332 332 331 330 331 331 330 328 325 322 322 324 326 328 330 330 329 328 325
317 316 316 317 317 317 318 318 318 320 321 322 323 324 324 325 325 324 325 326 326 324 323 324 325 324 323 323 324 325 325 324 323 322 322 324 326 327 330 330 329 329 329 329 330 331 329 329 329 328 328 327 328 331 332 332 331 330 330 330 332 332 332 333 333 333 333 333 332 332 332 332 332 331 328 324 321 320 321 324 327 329 330 330 330
316 316 316 317 317 317 317 317 318 319 320 320 321 322 322 323 324 324 324 324 323 323 323 322 322 323 323 322 323 324 325 324 325 325 324 326 329 328 329 329 327 326 327 327 329 330 329 328 328 327 326 324 325 328 332 333 332 331 330 330 331 332 333 333 333 333 334 334 334 334 333 333 333 331 330 328 326 323 322 322 323 325 327 329 330
315 315 316 316 317 317 317 317 317 318 319 319 320 320 321 321 322 323 324 324 323 322 321 321 321 321 321 322 321 322 321 321 325 327 326 327 329 329 328 327 326 325 326 327 328 328 327 327 326 325 324 323 323 326 331 333 333 333 331 330 331 332 332 333 334 334 334 335 334 334 334 333 333 333 332 332 331 330 328 326 324 323 324 325 326
315 315 315 315 316 317 317 317 317 317 318 319 319 319 319 319 320 320 322 323 323 323 322 321 322 322 321 321 321 321 321 320 324 329 330 329 329 329 328 327 326 326 327 328 329 328 327 326 325 325 324 325 327 329 330 331 332 332 332 331 331 331 332 332 333 333 334 334 334 335 335 334 334 334 333 333 333 333 332 330 328 326 324 323 323
314 314 314 314 315 315 316 317 317 318 319 319 319 319 319 318 318 319 320 321 323 324 323 323 323 323 322 321 320 320 320 320 322 327 330 330 329 329 328 328 329 329 328 328 329 330 329 328 329 329 329 329 330 330 329 329 329 330 331 332 331 331 331 331 332 332 332 333 334 334 334 334 334 334 334 333 333 333 332 331 331 330 329 329 329
313 313 312 312 313 314 315 316 317 318 319 319 319 319 319 318 318 318 318 319 321 323 323 324 324 324 323 322 321 320 320 320 321 323 325 326 325 324 325 326 327 328 329 329 329 330 330 330 330 331 330 330 329 329 329 329 329 329 330 331 330 330 330 331 331 332 332 332 332 332 332 333 333 333 333 333 333 333 333 333 332 331 331 331 331
312 311 312 312 312 313 314 315 317 317 318 318 318 318 319 318 318 318 318 319 319 321 322 323 324 324 323 322 322 321 320 320 320 321 322 322 321 321 321 321 322 323 325 328 330 330 329 329 329 329 329 329 329 331 331 329 328 328 328 329 329 330 330 331 331 331 331 332 332 332 332 332 332 332 332 332 331 331 331 332 333 331 330 330 330
311 311 312 313 312 313 313 314 316 317 317 318 318 318 318 318 318 318 318 319 319 319 320 322 323 323 323 323 322 321 320 319 320 320 321 321 320 320 320 320 319 320 321 325 329 330 330 330 329 329 328 328 330 331 331 330 329 328 328 329 329 330 331 331 331 331 331 331 332 332 332 332 332 332 332 332 330 329 329 329 330 330 331 331 330
311 312 313 313 313 314 314 314 315 317 317 318 317 317 318 318 318 318 317 318 319 319 319 320 321 322 322 322 323 322 321 320 320 320 320 321 321 320 320 320 320 321 321 323 327 329 329 330 330 329 329 329 330 331 330 329 329 329 330 330 330 330 330 330 330 330 330 330 331 331 331 332 333 332 332 332 331 331 330 328 328 329 330 331 331
310 311 312 313 313 314 314 314 315 316 317 317 317 317 317 317 318 318 317 317 318 319 319 319 320 321 321 322 323 323 323 323 322 321 320 320 320 320 319 319 320 321 322 323 326 327 328 328 329 329 329 329 330 330 329 329 329 329 330 330 330 330 330 330 329 329 329 330 330 330 330 331 332 332 332 331 330 329 328 327 327 327 328 328 329
310 310 311 311 312 313 313 314 315 315 316 316 316 316 317 317 317 317 317 317 317 318 320 320 321 321 321 322 323 323 324 324 324 323 322 320 320 319 319 319 320 322 324 325 325 325 325 326 326 326 327 327 327 327 327 327 327 327 328 329 329 329 329 329 329 329 329 329 330 330 330 329 329 330 330 329 329 327 326 325 325 325 325 325 325
310 309 310 310 310 311 313 313 314 314 314 314 314 315 315 316 316 316 316 316 316 317 319 320 320 321 321 322 323 323 323 323 324 324 323 322 321 321 321 321 321 322 324 324 324 324 323 323 323 323 323 324 324 324 324 324 324 324 324 325 325 325 325 325 326 326 326 326 325 326 326 327 328 328 329 329 328 327 327 326 325 324 323 323 324
310 309 310 309 309 310 311 312 312 312 311 312 312 313 314 315 315 315 315 316 316 316 317 319 319 320 320 321 321 322 322 323 323 324 323 323 323 324 323 323 323 323 323 323 323 323 322 323 323 323 323 323 323 323 323 323 323 323 322 322 322 322 322 322 322 322 321 322 321 321 322 323 323 324 325 326 325 325 325 325 324 322 320 320 322
310 309 309 309 309 309 310 310 310 310 310 310 311 313 315 316 316 316 316 316 316 315 316 318 319 319 319 320 320 320 320 321 322 323 323 323 323 323 323 323 323 323 323 322 322 322 322 322 322 322 323 323 323 324 324 324 324 324 324 323 323 323 323 322 321 320 321 322 323 323 323 321 319 321 321 320 320 320 320 320 319 318 317 318 319
309 309 309 309 309 309 309 309 309 309 309 310 311 312 315 316 316 316 317 316 317 316 316 317 318 318 319 319 320 320 320 320 321 321 322 322 322 321 321 322 323 323 322 322 321 321 320 320 320 320 321 322 323 323 323 324 324 324 324 324 324 323 323 322 322 321 322 323 324 325 325 323 322 324 324 322 321 321 320 320 320 321 322 322 322
309 309 309 309 309 308 309 309 309 308 308 309 310 312 315 317 316 316 317 317 318 318 317 317 318 318 319 319 320 320 320 319 320 320 321 321 321 321 321 321 321 321 321 321 321 320 320 320 320 320 320 320 321 322 323 323 323 323 323 323 323 323 323 323 323 322 322 323 323 324 325 325 324 325 325 325 324 324 324 324 324 324 325 325 325
309 309 309 309 308 308 308 308 308 307 307 309 310 311 314 316 316 316 316 317 318 318 318 318 318 319 319 319 319 320 320 319 319 320 320 320 320 320 320 320 320 320 320 320 319 319 319 319 319 320 320 320 320 321 321 322 323 323 323 323 323 323 323 323 323 323 322 322 323 323 323 324 323 324 324 323 323 324 323 323 323 323 323 323 323
Wind_Speed
11 11 11 11 12 14 14 14 15 15 14 11 11 10 9 9 9 7 6 6 6 6 6 6 7 10 10 8 6 3 1 5 9 3 7 9 12 15 13 12 11 10 10 10 11 12 12 12 11 11 12 13 13 13 12 12 12 13 12 12 12 13 13 12 12 12 12 13 12 11 9 7 6 6 6 5 5 5 5 6 6 5 4 5 5
13 12 12 11 12 13 13 14 15 16 15 13 11 10 10 10 10 8 6 6 6 5 5 5 6 10 11 9 7 3 1 5 7 2 7 7 12 14 12 11 10 10 10 10 11 12 12 12 10 10 12 13 12 11 11 11 12 12 12 12 11 12 12 12 12 12 12 12 12 11 9 7 6 5 5 5 5 5 5 5 5 4 4 4 4
15 15 15 13 12 12 12 13 14 16 16 14 12 11 10 9 9 8 6 8 8 5 3 5 7 9 11 10 8 5 2 3 4 2 6 6 10 13 12 11 10 10 9 10 11 11 11 11 10 10 11 12 11 11 11 11 11 11 12 11 11 11 11 11 11 12 12 12 12 11 9 7 6 5 4 5 5 4 4 5 5 4 3 4 4
16 18 18 15 13 14 13 12 13 15 16 15 14 12 11 9 7 7 7 9 11 7 4 4 7 10 11 11 10 8 6 4 1 3 6 6 9 12 12 12 11 10 9 9 10 11 11 10 11 10 11 11 10 10 10 10 11 11 12 11 11 11 11 11 11 11 11 11 11 11 10 8 6 5 4 4 5 4 3 4 4 3 3 3 4
17 20 20 16 15 16 15 13 13 14 17 17 16 13 12 10 7 7 9 10 10 8 5 4 8 11 11 10 10 8 7 7 5 5 6 7 8 10 11 11 11 11 10 10 10 10 11 10 10 10 11 11 10 10 10 11 11 11 12 11 11 11 12 12 11 12 11 11 11 11 10 8 6 5 4 4 4 5 3 3 3 2 2 3 4
17 19 21 19 18 18 17 15 14 15 16 18 18 15 13 11 8 8 10 11 10 9 8 6 8 11 9 9 10 7 5 7 7 7 6 7 8 9 10 10 10 11 11 10 10 10 10 10 10 11 11 11 11 11 10 11 11 11 12 11 11 10 11 11 12 12 12 12 12 12 11 9 7 6 5 5 5 5 4 2 2 2 2 2 3
19 19 20 22 21 20 18 17 17 17 15 16 17 17 15 13 10 9 10 12 11 11 10 8 8 10 9 11 11 8 6 7 7 7 7 8 8 8 9 9 9 10 11 11 10 10 11 10 10 11 12 11 12 11 9 10 10 11 11 12 12 10 10 10 11 11 12 12 12 12 11 9 8 7 6 6 5 5 4 2 1 1 1 2 3
21 21 20 22 23 22 20 18 19 18 15 15 17 18 17 14 11 10 10 12 13 12 12 10 9 9 9 11 12 9 8 8 7 7 7 8 8 8 8 8 8 9 10 10 11 11 11 11 11 11 12 12 12 11 10 10 10 10 12 12 12 11 10 9 9 10 11 12 12 12 11 10 9 8 7 7 6 6 5 3 1 0 0 2 3
20 22 21 21 22 23 22 20 20 19 18 17 17 18 18 16 13 12 11 12 13 13 12 11 10 9 9 11 12 10 8 8 7 7 8 9 8 8 8 7 8 9 9 10 11 12 12 12 12 11 12 12 12 11 11 10 10 11 12 12 13 12 12 11 9 9 10 11 12 13 12 11 10 9 9 7 7 7 6 4 3 2 1 1 3
17 20 20 21 22 23 24 23 22 21 20 19 19 20 19 18 16 13 12 13 14 14 12 12 11 10 11 12 13 11 10 9 8 8 9 10 9 8 8 8 8 8 8 9 10 11 12 12 13 13 12 12 12 12 11 11 10 11 12 13 13 14 13 12 11 10 10 10 11 13 14 13 12 10 10 9 8 9 7 6 4 4 3 2 4
16 18 19 20 22 23 25 25 24 23 21 20 20 21 20 19 18 15 14 14 14 14 12 12 11 10 11 13 13 11 13 13 10 9 9 10 10 9 8 8 9 8 7 8 8 8 9 11 12 13 13 13 13 12 12 12 11 11 11 13 14 14 15 14 13 12 11 10 11 13 15 14 13 12 11 10 9 10 9 7 6 5 4 3 4
15 17 17 18 21 23 25 25 25 24 22 21 21 21 20 19 18 16 16 15 13 14 13 13 12 10 12 14 13 13 15 14 12 11 10 10 10 10 9 9 10 10 8 7 7 7 6 7 9 12 13 13 14 14 14 13 12 12 11 12 14 15 15 15 14 13 12 11 11 13 15 15 15 13 12 11 11 11 10 8 7 5 5 4 4
14 17 17 18 20 22 24 26 25 25 24 22 21 21 20 19 18 17 17 15 13 14 14 14 13 12 14 14 13 13 14 13 12 12 10 11 12 12 11 10 11 11 9 8 7 6 6 5 6 9 11 12 13 14 15 15 15 14 12 12 14 16 16 15 15 14 13 12 11 13 15 16 15 14 14 13 12 12 11 10 9 7 6 6 6
13 15 16 18 20 21 24 25 25 26 26 24 22 22 20 20 19 17 17 15 14 15 15 14 13 14 16 15 13 13 12 12 14 13 11 11 12 12 12 13 13 12 10 9 8 6 5 4 4 6 8 9 10 12 14 15 16 15 14 14 15 15 17 16 15 15 14 13 13 13 15 16 16 15 15 14 13 13 13 12 11 10 9 8 8
12 14 16 18 19 20 22 24 25 27 28 26 24 23 21 21 21 19 17 16 16 16 16 15 14 16 17 15 13 12 12 14 16 15 13 12 12 11 12 14 14 12 12 11 9 7 5 4 3 4 5 6 6 7 10 14 16 15 15 15 15 15 16 17 16 16 15 15 15 15 15 16 16 16 15 15 14 14 14 13 13 12 11 10 9
13 14 16 17 19 20 21 23 26 26 27 26 25 23 22 22 23 21 19 18 18 17 16 16 16 16 18 15 12 12 14 16 17 16 15 15 14 12 13 15 14 13 12 11 9 7 6 5 4 4 5 4 2 3 5 9 13 16 16 16 16 15 15 16 17 17 17 17 17 16 16 16 16 16 16 16 15 15 15 14 15 15 14 13 10
15 16 16 17 19 21 21 22 24 26 26 26 25 24 22 22 24 24 21 19 19 18 17 18 18 18 18 16 13 14 17 17 16 16 16 16 16 14 15 17 15 12 11 10 9 8 7 7 5 5 6 4 2 3 5 6 10 14 15 16 16 15 14 14 15 16 16 17 18 18 18 17 17 16 16 17 16 15 16 15 15 15 16 15 12
15 16 17 18 18 21 22 22 24 26 27 26 26 25 23 22 23 25 24 22 21 19 18 18 19 18 18 18 16 13 16 17 17 17 16 15 15 15 16 17 15 13 12 11 10 9 8 8 7 5 6 6 3 3 6 8 8 10 12 13 15 15 15 15 15 15 16 17 18 20 20 18 18 17 17 17 17 16 17 17 16 15 17 17 12
15 16 17 17 17 19 22 24 25 27 27 27 28 28 25 23 23 24 25 25 23 22 21 20 21 20 20 22 19 12 13 17 17 15 15 17 17 16 16 16 15 14 13 12 11 9 9 9 8 5 5 6 5 5 7 8 9 10 10 10 11 12 13 14 16 16 16 16 18 20 21 20 19 18 18 18 18 18 18 18 18 17 18 17 13
15 13 12 12 14 16 19 22 24 27 28 27 28 29 27 25 23 23 24 25 24 24 24 24 24 24 24 25 20 13 12 14 15 14 14 16 18 18 18 17 16 16 14 13 12 10 10 10 9 6 5 7 7 6 8 9 9 10 11 10 10 9 9 12 14 16 16 16 17 18 21 22 21 19 19 19 18 19 20 20 20 19 19 18 15
11 7 6 7 10 14 17 20 22 26 28 27 26 28 28 27 25 24 23 23 22 23 25 27 27 25 25 25 21 17 14 12 13 16 15 14 16 18 19 19 19 17 15 13 13 12 11 10 10 9 7 7 7 7 8 9 8 9 12 12 11 9 8 9 11 15 17 17 16 17 19 21 22 21 19 19 19 20 21 21 21 21 21 19 17
9 4 3 4 7 12 16 20 23 24 26 27 26 25 26 25 25 24 23 22 22 24 26 27 27 25 25 25 23 21 18 15 13 15 17 16 15 15 17 19 19 18 16 13 12 12 11 11 11 9 8 6 6 7 8 8 8 8 10 12 12 9 8 8 9 12 15 17 17 17 18 19 21 23 21 19 20 21 21 21 21 22 22 21 19
11 4 2 4 5 9 13 15 17 19 21 25 26 25 24 23 24 24 23 22 22 24 26 26 26 25 25 25 25 22 21 19 15 13 15 16 15 13 14 16 17 15 14 12 12 12 11 11 11 9 7 6 6 6 7 7 8 7 8 10 11 10 9 8 8 10 12 15 16 17 18 18 19 23 24 22 21 21 22 22 23 23 23 22 21
12 6 2 4 5 7 10 12 15 15 17 20 22 24 24 23 24 25 25 24 23 23 25 27 27 27 26 25 24 23 22 21 19 16 15 15 15 13 11 12 15 13 11 11 12 12 12 11 11 10 9 8 7 7 7 7 7 5 6 8 10 11 10 9 8 9 10 12 14 15 17 18 18 20 24 25 23 22 22 24 24 24 24 24 22
11 10 5 3 6 6 9 12 16 16 13 13 16 21 24 25 26 26 26 25 23 24 26 27 28 28 27 25 25 24 24 23 22 20 17 15 15 12 9 10 12 12 11 12 13 13 13 12 11 10 10 10 10 9 8 8 8 6 6 6 8 10 10 10 9 9 9 10 11 13 15 16 17 18 20 24 26 25 24 24 25 25 25 24 23
10 11 10 5 3 5 6 8 12 15 13 11 14 18 22 24 25 25 24 23 23 24 25 27 29 28 27 25 24 24 24 24 24 22 20 17 15 14 10 9 11 11 12 13 13 14 14 13 12 11 11 11 11 11 10 10 9 9 8 7 7 9 10 10 10 10 10 10 10 12 13 13 14 15 16 19 23 25 26 26 25 25 24 23 24
9 9 9 8 5 3 5 5 8 11 13 13 13 15 18 20 22 25 24 22 24 24 24 26 27 27 25 23 22 21 21 23 24 24 22 19 17 15 13 11 12 13 13 14 15 15 14 13 13 12 12 11 11 12 11 11 9 9 9 8 7 8 10 11 12 12 12 12 12 12 13 12 13 13 14 16 17 19 23 26 27 25 24 24 24
8 7 7 7 6 3 2 5 7 9 11 14 15 15 17 18 20 23 24 24 25 25 25 26 26 25 24 23 22 21 19 19 22 24 23 21 18 17 16 13 13 14 14 15 16 15 13 13 13 13 12 11 11 11 12 12 11 10 9 8 7 7 9 10 12 13 13 13 13 13 13 13 13 13 13 15 16 17 19 23 26 27 25 24 24
8 8 7 6 4 3 2 3 6 8 10 12 14 16 17 17 18 20 22 24 25 25 24 24 24 23 23 22 23 22 19 18 20 22 23 22 21 20 18 15 14 14 14 16 17 15 13 11 10 9 10 10 10 9 10 11 10 11 11 9 7 7 8 9 10 11 12 13 13 13 13 14 14 14 14 14 16 17 18 20 23 27 26 25 25
8 9 8 4 2 1 2 3 3 5 9 12 15 16 16 16 18 19 19 20 22 23 21 20 20 20 21 22 22 22 21 20 20 21 22 23 22 22 20 17 16 15 13 14 17 15 12 8 6 6 6 7 8 9 9 10 10 11 12 11 9 8 8 9 10 10 11 11 11 11 12 13 14 15 15 15 15 16 17 18 19 23 26 27 27
9 9 7 5 2 1 1 2 1 3 6 10 15 14 12 12 16 20 21 20 20 21 20 18 18 18 19 20 21 21 21 21 21 21 23 23 23 23 22 19 19 18 15 13 16 15 12 8 5 4 4 4 5 7 8 10 10 11 12 12 10 9 9 10 11 11 10 10 10 10 11 12 12 14 14 15 16 16 17 17 17 18 22 25 27
8 8 6 5 3 1 2 3 2 2 3 7 12 12 11 10 10 14 18 18 17 18 20 20 19 19 18 18 18 18 19 20 20 21 22 22 23 23 23 21 21 20 17 15 16 15 13 11 8 6 5 5 5 6 7 8 9 11 12 12 12 11 11 11 11 12 11 10 10 9 10 11 12 13 14 14 15 15 16 17 16 16 17 20 24
4 5 5 5 4 2 3 4 4 4 4 6 9 10 11 11 9 10 12 12 11 12 15 16 16 16 16 17 17 18 18 19 19 20 21 20 20 21 21 22 23 21 18 16 17 16 14 14 13 11 10 9 10 10 10 10 9 10 11 12 14 14 13 12 11 12 11 11 10 10 11 12 13 14 15 16 16 16 16 16 17 17 16 17 19
3 2 4 4 3 3 2 4 5 6 6 8 10 10 11 12 11 13 15 14 13 11 12 13 14 14 15 15 16 18 20 21 21 21 20 20 18 16 17 19 20 20 18 15 16 17 16 15 14 14 13 13 14 15 15 15 13 12 11 12 13 14 13 14 13 13 13 13 13 12 12 13 14 15 16 17 18 17 17 17 17 17 18 18 18
5 5 4 3 3 3 3 3 5 7 8 8 10 11 13 13 13 15 16 15 15 15 15 16 16 16 16 16 15 14 14 17 20 23 22 20 19 16 16 16 16 16 15 14 16 18 19 18 16 16 16 14 15 16 16 16 17 17 15 12 12 14 15 15 15 14 14 15 15 14 13 13 14 15 15 17 18 19 19 18 18 18 18 18 19
6 6 6 4 4 5 5 4 4 6 8 9 9 11 13 15 15 14 15 15 15 16 17 18 18 18 17 17 17 15 12 11 14 20 23 21 19 17 16 15 15 14 13 14 17 19 20 21 21 20 19 18 18 18 17 17 17 18 18 15 14 16 16 17 17 16 16 16 17 17 16 15 14 13 13 14 16 18 19 19 20 20 19 19 20
7 7 6 5 4 4 5 6 6 6 7 8 9 10 11 14 15 14 14 16 17 18 17 16 16 16 17 18 19 17 15 12 10 15 21 21 19 17 16 16 16 15 14 16 19 21 21 23 24 24 22 20 19 19 19 19 18 18 19 18 16 16 17 19 20 20 19 19 19 19 18 17 15 13 13 13 14 15 17 18 19 20 20 20 20
8 7 6 5 4 3 5 6 7 6 6 6 6 6 6 8 12 14 16 17 17 17 17 16 13 12 14 18 19 18 16 13 9 10 15 17 16 16 16 16 16 15 16 17 18 20 20 21 22 22 20 19 18 18 19 20 21 20 19 19 18 16 16 17 19 20 20 20 20 20 21 20 18 16 15 14 14 14 15 16 17 18 19 20 20
8 8 8 7 5 4 5 6 7 7 6 5 5 5 5 5 6 10 14 16 15 13 14 16 14 12 12 13 15 16 16 15 11 9 11 11 10 12 13 13 14 15 16 15 15 16 18 19 20 21 20 19 19 18 18 19 20 21 20 20 19 18 17 17 18 19 19 20 20 21 22 22 22 22 20 18 17 16 15 15 16 17 18 19 20
11 11 11 8 7 6 6 6 6 6 7 7 6 6 6 6 6 7 10 14 15 15 15 15 14 14 13 12 12 13 15 16 14 11 12 11 8 6 7 8 9 12 13 13 13 15 18 18 19 19 20 20 18 17 16 16 17 18 18 19 19 18 18 18 18 19 19 19 20 20 21 22 22 23 23 22 21 20 19 17 17 17 18 19 20
11 11 10 8 5 4 6 6 4 4 6 7 8 8 8 8 8 7 8 10 13 17 18 16 14 15 15 14 14 13 14 16 17 15 15 14 10 5 6 7 9 10 12 13 14 15 17 17 18 18 19 20 18 16 15 15 16 16 17 17 17 16 16 16 17 17 19 19 20 21 21 21 22 22 22 23 22 21 22 22 21 20 19 19 19
8 7 8 7 6 5 3 3 4 3 4 5 6 7 8 9 9 8 8 8 9 13 17 17 16 16 15 15 16 16 16 16 18 19 19 18 17 13 12 13 14 15 15 15 14 15 15 16 16 17 18 19 17 15 14 13 13 14 14 15 15 15 16 17 17 16 17 18 19 21 21 21 23 23 23 22 21 21 22 24 24 24 23 22 22
6 7 7 6 6 5 4 1 2 2 3 4 6 6 7 8 8 8 8 8 8 9 11 15 17 17 17 17 17 19 19 18 18 20 22 23 23 21 19 18 19 18 17 17 16 15 15 15 16 16 17 17 15 14 13 12 11 11 11 12 12 13 15 17 17 16 15 16 18 20 20 19 21 22 22 22 22 22 22 23 23 23 23 24 24
7 6 5 6 6 6 5 4 2 1 1 1 3 4 5 6 7 7 8 9 9 8 8 9 12 14 15 16 17 18 19 18 17 17 20 21 21 20 18 18 19 18 17 17 17 15 15 15 16 16 16 16 15 14 13 13 12 12 12 11 11 12 13 15 17 16 16 16 17 19 20 19 19 22 23 23 23 22 21 21 21 22 23 23 24
9 7 5 6 7 5 5 5 4 4 5 5 4 5 6 6 7 8 7 8 10 10 9 8 8 9 10 10 11 11 13 14 14 13 14 16 16 16 16 17 18 16 13 13 15 15 16 17 17 17 17 17 17 16 15 15 15 15 15 14 14 14 15 16 17 17 17 18 18 20 22 20 19 22 23 23 23 23 22 22 23 24 25 25 25
11 11 9 9 8 6 5 6 7 8 9 10 9 9 9 9 10 10 9 9 9 11 13 11 8 7 7 7 7 7 8 11 13 13 12 13 13 13 13 15 17 16 14 13 14 15 16 17 18 18 17 17 18 17 16 16 17 17 16 16 16 17 18 18 19 20 20 21 21 22 25 25 22 23 24 24 24 25 26 27 27 27 27 27 26
10 11 11 13 13 9 4 3 4 6 7 7 6 5 5 6 8 9 8 8 8 11 15 15 11 7 6 6 7 6 5 7 10 12 12 12 12 11 11 13 14 14 12 12 12 13 14 15 16 16 16 16 16 17 16 16 17 16 15 15 15 16 17 18 19 20 20 20 19 20 24 26 25 24 26 27 28 30 30 30 31 30 29 29 28
9 10 10 11 14 12 9 7 6 6 7 7 6 5 2 2 2 3 3 3 4 9 13 15 13 10 7 6 6 6 5 4 5 8 9 10 10 10 10 11 11 11 10 10 10 11 13 13 15 16 16 15 15 15 15 15 15 15 15 15 15 15 16 17 18 18 16 14 13 13 18 22 22 21 24 27 28 30 31 31 31 30 29 28 28
8 9 8 9 11 10 8 8 9 9 9 8 7 6 5 7 5 4 3 2 3 6 9 11 12 11 10 8 7 6 7 6 5 6 7 7 8 8 8 9 9 9 10 11 12 13 14 15 16 17 17 17 16 16 16 16 16 16 17 16 16 17 17 17 18 17 14 12 12 12 15 17 17 17 20 22 24 25 26 26 26 25 25 25 25
7 6 6 9 9 9 8 9 10 11 10 7 6 5 7 9 8 6 5 4 6 7 8 9 10 10 10 9 7 6 7 7 8 8 9 8 8 9 10 10 11 12 13 14 14 16 17 17 18 19 19 19 18 17 17 17 17 17 17 16 17 17 16 16 18 18 17 14 12 12 12 14 16 16 18 21 23 24 23 23 23 23 23 24 25
5 6 9 9 8 8 9 10 12 12 9 6 5 4 6 10 10 8 6 5 6 8 9 9 9 9 9 8 7 7 6 7 7 8 8 9 9 9 10 11 12 14 15 16 18 19 19 20 21 22 22 23 22 20 19 19 18 17 15 15 15 14 13 14 15 16 17 14 11 10 11 13 16 16 17 20 23 24 23 22 23 24 25 25 26
Wind_Direction
225 226 222 213 211 209 210 213 210 211 211 205 194 182 179 174 172 177 177 180 188 189 178 177 181 182 204 231 230 239 315 350 345 309 184 177 165 162 167 168 164 164 164 165 165 166 168 170 175 174 170 171 170 169 171 171 168 169 170 169 170 169 169 168 166 165 166 167 167 170 171 164 160 146 134 131 123 113 108 113 116 108 86 72 69
229 232 232 220 214 215 215 216 214 213 214 210 201 191 189 186 183 191 204 220 228 211 179 175 185 184 194 219 227 218 7 359 345 250 186 177 167 164 166 168 166 167 167 167 167 167 168 171 177 175 172 174 173 173 175 175 174 174 173 172 174 173 174 173 171 171 172 172 172 176 178 172 169 151 135 136 132 121 115 120 121 111 88 71 65
231 232 236 228 218 219 218 219 221 217 215 211 206 200 194 196 199 208 233 261 271 258 193 174 185 190 197 214 220 199 147 17 346 207 188 181 171 167 165 168 171 172 172 173 174 173 173 175 178 180 178 175 174 178 179 179 182 182 179 177 179 178 178 178 176 177 177 176 177 181 181 176 172 160 143 143 145 140 129 124 120 108 86 71 65
233 233 235 231 225 226 221 220 224 221 218 211 208 207 201 204 217 234 254 268 275 264 218 187 193 195 202 216 216 193 152 123 88 176 186 189 181 174 169 170 173 175 177 180 182 181 181 181 182 185 185 180 179 183 183 184 188 187 185 183 182 182 182 183 181 182 182 181 183 185 186 181 175 171 159 157 159 161 147 124 115 107 87 72 68
234 234 233 229 228 231 228 224 225 223 219 212 210 209 206 212 223 247 259 259 268 261 232 219 205 198 204 218 219 203 156 137 141 158 177 186 190 184 177 177 176 178 179 183 190 189 188 187 189 191 189 187 187 189 190 191 193 188 186 185 185 187 186 187 187 187 187 186 187 189 191 189 186 188 178 171 170 174 169 132 111 103 83 66 57
236 234 231 227 227 230 232 230 230 228 221 215 213 210 209 216 225 246 256 252 259 260 248 237 211 199 203 216 221 212 168 147 145 153 169 177 187 188 185 186 183 182 180 184 193 194 194 192 193 196 193 194 193 191 193 198 198 190 186 185 188 194 192 192 192 191 192 192 191 192 195 197 202 206 194 183 179 181 184 156 106 87 68 49 39
240 236 229 226 225 226 229 232 235 232 222 219 218 216 215 217 227 243 248 247 250 254 254 244 218 204 202 214 219 204 173 161 150 152 168 173 181 185 184 189 189 189 186 188 194 196 198 194 195 198 195 197 195 192 195 201 202 197 192 188 191 197 197 198 197 194 196 197 196 196 200 204 210 216 207 194 187 189 193 184 92 79 62 23 19
241 239 230 225 225 224 225 228 235 234 227 229 227 224 223 219 224 235 240 246 245 246 248 237 222 209 199 205 210 199 174 165 156 163 179 179 179 179 179 185 190 195 196 196 197 196 198 196 195 198 198 198 197 198 201 201 203 203 199 193 193 195 197 200 202 201 202 203 201 201 206 211 213 215 216 207 194 196 196 198 243 208 208 0 1
239 238 234 228 227 225 223 222 227 231 231 235 234 229 227 222 223 228 235 245 242 240 241 234 225 214 204 198 199 202 189 172 162 172 191 189 179 174 173 178 189 198 204 205 205 202 201 198 195 197 202 203 202 205 208 205 203 205 204 200 197 196 197 200 204 207 209 211 210 207 209 212 213 213 218 218 204 198 195 204 231 226 227 316 332
238 237 236 234 231 228 224 220 219 225 231 235 234 230 226 224 228 228 232 243 242 236 232 231 226 214 210 202 195 205 205 191 179 182 198 199 184 172 170 173 182 193 200 204 209 211 210 206 199 197 202 206 208 210 210 211 211 210 210 208 204 200 201 203 206 210 212 215 215 213 210 211 214 213 216 221 212 202 198 210 230 224 223 269 309
239 238 239 237 235 233 229 225 220 221 228 233 232 229 225 224 232 231 230 239 240 231 222 220 218 209 209 203 193 205 214 207 199 194 202 206 194 180 178 179 180 186 191 191 195 207 215 215 210 206 204 207 210 212 213 216 220 218 217 215 212 207 206 207 209 213 214 215 214 214 213 211 213 213 216 222 217 209 207 215 228 227 229 259 302
238 238 239 239 237 236 233 229 224 221 225 230 231 229 225 224 231 231 228 234 231 222 217 214 213 206 205 203 193 201 215 216 213 209 204 209 206 193 190 192 192 193 197 194 187 195 209 217 222 220 214 214 215 215 215 218 222 224 224 224 220 215 213 211 212 214 216 216 212 211 213 212 213 213 215 219 219 214 213 219 224 228 243 265 295
244 240 239 239 238 238 235 232 228 225 226 229 230 229 225 224 228 229 229 233 228 219 214 209 208 203 199 196 192 200 213 217 223 226 213 209 212 203 198 202 205 204 206 208 202 202 213 222 231 228 222 223 223 223 221 219 221 220 221 228 227 224 220 216 215 216 217 218 213 209 213 214 214 214 213 217 224 221 216 222 226 235 253 264 284
252 247 241 240 240 238 237 234 229 227 226 226 226 226 224 222 224 225 227 230 226 220 214 205 202 200 196 188 186 199 214 218 222 227 220 214 218 214 208 208 210 208 206 213 218 216 223 236 243 230 223 225 226 229 229 226 225 219 215 222 231 232 227 222 222 222 220 219 216 210 210 215 216 215 215 219 227 228 223 224 228 236 250 263 279
263 256 247 243 244 239 234 232 228 225 224 223 223 223 221 220 221 222 224 228 224 217 213 208 201 198 195 188 188 196 210 221 222 221 220 221 225 227 225 220 215 212 207 209 216 223 232 246 256 238 227 227 226 235 238 232 232 231 224 221 228 235 231 227 227 229 226 220 219 213 207 213 218 216 217 222 228 233 232 231 234 237 242 255 272
275 268 259 251 247 241 233 230 229 225 222 222 222 222 221 219 219 220 224 228 222 213 208 207 204 200 195 186 183 192 204 212 213 214 217 220 224 228 230 229 224 222 217 211 211 220 233 245 256 252 246 245 251 278 264 241 233 235 234 228 227 233 233 233 231 229 228 222 220 216 207 208 217 217 217 223 229 233 236 238 242 246 245 250 257
278 275 269 260 251 244 236 230 228 226 223 222 222 222 223 222 220 221 223 224 220 213 208 206 206 211 209 192 179 195 208 205 204 214 216 215 218 220 223 227 228 231 228 222 219 222 232 241 243 255 267 269 277 313 307 275 243 234 234 231 229 233 235 240 240 235 231 223 219 217 211 206 212 219 219 223 229 230 234 238 246 253 254 257 255
284 280 273 263 253 244 236 227 225 226 224 221 222 222 223 225 223 223 223 220 218 215 214 213 209 214 216 205 196 208 214 204 200 210 214 214 216 219 222 225 229 237 236 231 230 229 236 247 243 241 265 274 268 298 308 297 271 243 234 232 234 238 239 241 245 244 238 228 221 219 216 209 208 217 220 224 228 227 232 238 245 252 255 264 260
297 291 280 263 250 242 234 225 221 224 224 220 220 221 222 226 226 226 223 219 220 222 223 218 209 208 211 209 208 212 214 209 206 206 209 213 216 220 224 224 230 236 235 235 235 231 236 251 253 236 247 270 275 285 293 296 284 255 238 232 235 240 241 242 243 245 245 237 227 221 219 215 209 212 219 225 227 227 231 236 242 248 251 261 262
305 297 283 259 243 237 230 224 220 221 222 219 219 219 221 225 227 227 225 220 223 227 224 214 206 205 207 208 208 204 204 214 221 223 220 219 217 218 220 222 227 229 228 234 238 234 237 250 262 257 256 274 282 284 283 288 284 260 243 239 242 244 245 247 244 244 247 244 235 226 221 219 214 211 215 222 226 229 232 234 241 248 250 256 259
318 299 280 257 240 232 222 219 220 221 221 217 215 216 218 222 224 225 223 219 220 221 216 212 208 207 207 207 208 208 205 208 220 229 232 230 223 221 221 220 223 224 225 230 235 236 239 247 260 264 269 279 284 286 280 279 281 264 249 246 247 246 249 257 253 246 245 245 242 234 228 223 218 214 215 220 224 229 235 238 243 250 250 253 256
344 323 283 275 250 231 222 220 220 220 221 217 214 214 215 219 222 224 222 217 215 214 212 213 211 208 209 210 214 217 215 212 216 224 232 235 233 233 231 227 228 230 229 230 232 236 240 245 253 260 270 280 282 283 279 273 274 265 250 246 245 245 249 259 267 261 251 247 246 241 236 230 224 218 215 218 225 230 236 240 244 249 249 250 255
0 351 267 284 275 242 233 226 212 209 215 216 217 218 215 216 220 223 220 214 212 209 208 211 211 209 210 214 220 226 226 225 224 227 235 240 242 243 240 235 236 238 235 234 233 235 240 244 249 256 264 272 274 277 279 275 273 265 246 243 250 257 257 257 267 274 267 259 256 252 245 237 230 223 217 215 222 229 235 240 244 249 251 251 254
10 4 269 259 273 264 250 224 194 193 206 209 213 216 213 213 217 219 216 211 211 210 208 209 209 207 209 214 221 228 233 233 231 231 238 243 244 247 249 240 235 232 230 228 226 232 242 246 248 254 257 258 257 260 268 268 266 262 248 244 254 263 265 264 263 268 273 271 270 269 260 248 239 229 222 218 220 225 232 239 243 247 251 253 254
15 14 0 273 244 261 263 232 202 195 197 197 201 207 209 209 211 212 211 209 211 214 213 212 212 210 211 218 223 226 231 233 235 237 238 239 239 241 251 246 233 229 229 227 227 234 243 245 245 250 254 254 254 255 257 256 252 253 257 255 256 260 264 265 264 264 269 274 277 279 277 266 253 241 231 226 223 222 228 238 244 247 249 251 253
15 17 11 354 266 251 260 242 218 211 208 201 199 204 209 209 207 207 209 211 213 215 215 215 216 216 216 220 222 223 227 230 233 237 237 237 236 233 240 249 244 240 238 234 235 238 240 243 246 249 253 255 254 253 252 253 252 252 257 260 257 259 261 262 265 265 266 271 276 280 285 284 274 262 253 245 235 228 228 233 241 246 247 248 251
4 10 10 8 354 279 244 235 226 224 222 216 208 208 210 207 206 207 206 208 211 213 212 213 216 218 220 220 218 219 225 230 231 233 234 237 238 235 235 244 253 255 252 246 242 239 237 241 247 251 253 256 255 253 254 255 252 250 252 255 258 262 262 261 263 264 263 265 268 273 279 284 285 281 275 270 260 249 241 237 238 242 244 245 250
343 348 3 12 14 5 275 243 236 230 223 218 215 211 203 197 201 205 204 205 210 214 214 214 217 220 222 225 226 226 229 231 230 230 231 234 238 240 238 240 249 257 261 257 251 245 240 238 242 247 252 258 259 257 258 256 250 246 246 251 259 265 268 267 265 265 264 264 266 269 273 277 281 285 286 285 282 276 266 254 247 244 241 242 247
323 323 338 3 14 11 340 273 249 241 227 219 217 208 197 196 202 204 202 204 208 213 214 217 219 220 223 227 229 231 231 229 226 224 227 233 238 240 240 244 247 252 260 262 258 254 249 242 241 247 254 263 271 270 265 258 250 242 238 244 257 263 271 277 273 270 267 266 268 269 272 275 277 280 283 284 285 284 281 273 262 254 247 242 244
300 305 309 331 356 338 317 310 287 260 239 217 208 202 196 203 208 202 199 202 205 208 209 212 215 215 218 222 225 227 229 227 223 223 227 233 236 237 238 242 245 245 252 263 264 262 256 245 236 249 259 265 276 282 276 270 263 249 238 239 251 258 265 273 275 275 272 270 271 272 274 275 275 276 276 276 278 280 282 282 276 266 258 250 248
278 288 293 306 316 210 234 279 297 277 247 205 187 185 185 198 209 206 201 201 204 205 203 205 210 209 210 214 217 220 222 222 222 225 230 233 234 234 236 240 243 242 241 250 261 261 252 236 217 226 245 250 263 273 271 268 266 260 248 241 245 255 262 266 268 270 272 274 275 278 281 282 280 278 275 273 272 274 277 280 280 276 269 261 257
267 272 282 296 294 204 181 224 222 238 234 177 164 166 171 181 203 209 200 194 198 201 200 202 207 209 209 207 208 212 214 216 220 226 231 232 233 235 236 238 239 241 241 244 251 249 239 235 237 242 245 244 251 258 258 258 256 255 252 246 247 253 255 258 261 262 267 274 278 283 287 289 289 287 283 280 276 274 275 277 279 279 276 269 265
277 264 274 284 287 262 194 191 195 207 212 184 170 173 179 181 187 195 191 188 199 207 206 206 208 212 214 210 208 209 209 211 215 220 226 230 234 235 235 235 235 237 240 244 250 250 238 236 250 263 264 262 263 261 259 259 256 254 254 253 253 254 253 254 257 259 262 269 276 282 285 287 287 286 285 285 282 280 278 278 278 278 277 274 269
327 295 272 267 280 287 247 199 186 188 200 204 198 191 189 189 190 192 191 190 201 216 223 223 223 226 226 222 221 222 222 223 221 221 226 231 235 234 232 233 236 236 236 240 251 258 253 246 253 263 265 266 269 268 266 263 260 260 259 256 256 257 258 260 261 262 263 266 270 275 282 289 289 284 280 279 281 282 280 278 277 276 275 274 272
346 339 312 280 264 271 277 240 202 190 188 196 206 208 205 201 202 202 195 191 197 209 220 226 230 235 234 230 227 226 229 234 234 233 234 233 232 231 226 227 233 235 233 238 249 259 265 264 263 263 260 263 268 270 271 268 265 263 259 253 253 256 258 262 264 264 263 265 268 271 278 288 292 290 283 278 278 280 280 279 277 276 275 273 272
356 353 343 324 286 267 276 270 235 208 193 189 195 210 216 217 221 215 199 195 198 202 212 221 226 232 236 235 232 228 233 246 248 242 238 233 228 226 225 227 232 234 234 244 254 260 267 270 270 269 266 266 267 268 270 270 269 267 262 254 251 253 255 258 260 260 260 262 265 267 270 276 284 290 290 286 283 282 282 281 279 277 276 274 274
345 343 337 326 309 285 278 271 258 237 216 204 196 203 216 223 231 230 214 209 208 202 206 216 221 228 235 240 240 237 240 252 260 245 235 232 228 224 229 233 235 236 238 247 255 258 262 266 269 271 269 266 265 265 265 264 265 267 264 258 253 253 255 256 258 260 261 260 259 259 260 264 271 279 284 286 287 287 286 285 284 280 277 275 275
335 332 324 315 310 293 276 266 258 248 235 226 214 212 222 228 233 235 233 233 223 207 205 210 215 224 233 239 242 241 240 243 245 231 221 222 226 228 233 237 236 238 242 246 252 257 260 263 266 267 264 260 261 261 261 260 259 260 261 258 255 255 258 262 264 264 264 263 261 259 258 260 265 269 273 276 279 281 283 283 284 285 283 281 280
321 317 310 297 287 276 264 254 250 246 236 230 226 231 241 253 251 240 241 244 233 214 212 213 210 214 224 232 236 236 236 232 225 213 204 200 207 219 227 232 234 236 239 243 250 259 263 264 266 265 261 258 257 258 257 256 257 257 256 255 255 257 262 269 271 270 268 266 263 260 259 260 263 265 266 268 271 274 278 280 281 284 287 288 288
320 318 317 305 286 263 247 243 245 245 239 233 231 239 246 256 262 250 242 243 236 229 228 223 213 214 221 227 230 229 231 232 227 218 211 203 189 196 217 227 234 239 241 245 254 262 263 264 266 266 264 262 261 259 257 256 255 254 252 253 257 261 265 269 271 271 271 270 267 264 262 263 264 266 266 266 267 269 273 276 278 281 285 289 291
330 331 341 347 335 290 252 240 239 247 249 244 241 245 253 259 263 256 241 236 236 234 232 229 224 221 220 224 230 231 229 231 230 224 217 213 208 214 234 239 251 262 262 260 261 263 263 263 263 264 264 264 264 262 262 260 259 257 255 256 260 263 265 265 265 267 270 272 272 269 268 269 271 271 270 269 269 271 273 274 275 278 283 287 289
352 2 8 14 12 354 314 255 237 256 271 271 265 257 255 257 258 256 245 234 233 233 231 230 232 233 230 230 233 234 231 230 231 230 224 217 219 234 252 260 269 279 279 274 267 263 262 261 260 260 260 260 262 264 265 266 265 263 261 260 261 262 264 265 264 264 267 272 273 271 270 272 274 274 272 272 273 276 276 276 275 278 282 285 287
20 30 23 24 31 27 12 345 219 260 271 272 282 280 268 261 255 252 246 236 229 232 233 232 236 239 240 239 237 234 231 228 228 232 233 229 231 241 254 262 268 274 276 273 268 263 261 260 258 258 258 260 262 264 267 269 268 266 264 262 263 264 265 268 268 268 269 272 274 273 270 269 271 271 271 272 273 273 274 276 277 280 283 283 284
28 23 7 8 21 33 35 43 63 24 309 284 298 294 278 268 259 254 249 239 229 226 227 232 238 242 244 245 241 231 223 218 214 220 229 233 237 244 250 256 261 265 266 265 262 260 259 258 259 259 261 262 261 260 263 267 265 262 260 258 261 264 265 265 267 268 269 270 272 273 271 267 267 268 268 269 269 271 273 276 280 282 282 282 284
27 19 6 350 347 349 358 3 356 331 313 304 292 276 268 263 257 254 251 244 234 224 217 216 226 236 240 243 240 227 214 205 198 200 210 218 227 234 240 247 253 255 253 254 255 255 255 257 259 259 259 260 260 258 260 262 262 260 258 255 256 261 263 265 265 266 269 271 275 277 273 266 266 268 266 263 265 270 273 277 281 282 281 283 287
21 20 22 16 5 342 319 322 321 309 301 296 285 270 262 257 254 253 252 249 238 221 215 213 211 217 220 218 219 221 214 202 195 195 198 200 208 219 228 239 245 245 242 244 250 254 257 259 261 261 261 262 263 263 264 265 266 266 264 262 260 262 265 267 267 267 271 276 281 284 278 271 273 277 272 267 272 277 275 275 279 282 283 285 287
17 20 21 27 35 37 30 4 334 321 319 320 320 304 276 254 248 248 245 244 232 215 211 213 213 211 206 207 215 225 229 208 197 202 207 206 207 211 218 228 232 230 232 240 247 254 258 260 263 265 267 266 266 268 269 269 270 270 271 270 269 270 272 274 273 274 279 284 288 290 284 278 281 285 279 276 280 282 278 277 279 283 285 286 286
15 15 17 32 47 58 68 62 43 27 16 14 22 29 56 142 178 210 209 216 218 210 207 209 213 215 210 212 223 233 247 238 200 203 214 216 212 209 215 226 224 218 227 243 252 258 263 265 268 270 270 268 266 267 268 270 271 272 272 272 274 275 276 277 278 278 282 287 288 290 286 280 282 287 283 278 280 281 280 280 283 286 288 288 288
9 6 21 43 49 55 62 53 41 33 24 26 39 54 102 130 130 134 145 145 165 186 196 201 208 214 215 220 234 245 254 255 235 224 227 227 220 214 220 233 234 229 237 249 256 262 266 270 272 272 271 269 267 267 269 271 272 273 274 275 275 275 274 274 274 273 273 276 281 290 293 287 285 291 289 282 281 283 284 284 287 290 293 292 291
7 16 49 58 49 50 55 44 33 26 20 26 45 72 125 143 143 140 145 147 144 154 172 187 199 207 211 220 236 251 258 257 250 246 244 243 242 238 236 241 244 246 250 255 259 264 267 270 271 272 272 271 268 265 265 266 266 268 270 273 274 274 272 269 268 268 269 273 283 292 294 289 286 291 295 291 286 284 286 287 289 291 293 294 294
32 53 70 68 55 51 52 40 28 23 20 29 46 78 134 156 160 153 149 154 156 160 168 174 181 190 199 210 223 233 242 244 244 247 248 247 246 246 246 247 249 253 257 260 263 265 266 267 266 266 267 267 265 261 257 255 256 259 260 262 264 265 263 261 262 267 270 276 288 292 287 285 284 287 297 303 298 291 289 290 290 290 292 293 294